Time,TemperatureF,DewpointF,PressureIn,WindDirection,WindDirectionDegrees,WindSpeedMPH,WindSpeedGustMPH,Humidity,HourlyPrecipIn,Conditions,Clouds,dailyrainin,SoftwareType,DateUTC
2013-03-18 01:02:00,36.0,36.0,-100.00,SE,125,2.0,6.0,100,-99.99,,,-99.99,,2013-03-18 08:02:00,
2013-03-18 01:12:00,36.0,36.0,-100.00,SE,125,2.0,6.0,100,-99.99,,,-99.99,,2013-03-18 08:12:00,
2013-03-18 03:03:00,35.0,35.0,-100.00,ESE,105,3.0,5.0,100,-99.99,,,-99.99,,2013-03-18 10:03:00,
2013-03-18 03:12:00,35.0,35.0,-100.00,ESE,105,3.0,5.0,100,-99.99,,,-99.99,,2013-03-18 10:12:00,
2013-03-18 05:03:00,36.0,-99.9,-100.00,SE,125,5.0,7.0,-999,-99.99,,,-99.99,,2013-03-18 12:03:00,
2013-03-18 05:13:00,36.0,-99.9,-100.00,SE,125,5.0,7.0,-999,-99.99,,,-99.99,,2013-03-18 12:13:00,
2013-03-18 07:03:00,36.0,-99.9,-100.00,SE,130,3.0,6.0,-999,-99.99,,,-99.99,,2013-03-18 14:03:00,
2013-03-18 07:13:00,36.0,-99.9,-100.00,SE,130,3.0,6.0,-999,-99.99,,,-99.99,,2013-03-18 14:13:00,
2013-03-18 09:00:00,38.0,-99.9,-100.00,ESE,120,2.0,5.0,-999,-99.99,,,-99.99,,2013-03-18 16:00:00,
2013-03-18 11:00:00,42.0,40.0,-100.00,NW,320,3.0,7.0,92,-99.99,,,-99.99,,2013-03-18 18:00:00,
2013-03-18 13:02:00,42.0,41.0,-100.00,West,275,2.0,6.0,96,-99.99,,,-99.99,,2013-03-18 20:02:00,
2013-03-18 13:12:00,42.0,41.0,-100.00,West,275,2.0,6.0,96,-99.99,,,-99.99,,2013-03-18 20:12:00,
2013-03-18 15:00:00,46.0,37.0,-100.00,NNW,330,2.0,6.0,70,-99.99,,,-99.99,,2013-03-18 22:00:00,
2013-03-18 15:03:00,46.0,38.0,-100.00,NW,310,2.0,9.0,73,-99.99,,,-99.99,,2013-03-18 22:03:00,
2013-03-18 15:12:00,46.0,38.0,-100.00,NW,310,2.0,9.0,73,-99.99,,,-99.99,,2013-03-18 22:12:00,
2013-03-18 17:00:00,46.0,35.0,-100.00,NW,305,2.0,9.0,65,-99.99,,,-99.99,,2013-03-19 00:00:00,
2013-03-18 17:02:00,47.0,35.0,-100.00,NNW,330,3.0,8.0,62,-99.99,,,-99.99,,2013-03-19 00:02:00,
2013-03-18 17:12:00,47.0,35.0,-100.00,NNW,330,3.0,8.0,62,-99.99,,,-99.99,,2013-03-19 00:12:00,
2013-03-18 19:00:00,42.0,36.0,-100.00,NW,315,1.0,2.0,79,-99.99,,,-99.99,,2013-03-19 02:00:00,
2013-03-18 21:03:00,40.0,35.0,-100.00,WNW,295,1.0,2.0,82,-99.99,,,-99.99,,2013-03-19 04:03:00,
2013-03-18 21:13:00,40.0,35.0,-100.00,WNW,295,1.0,2.0,82,-99.99,,,-99.99,,2013-03-19 04:13:00,
2013-03-18 23:02:00,38.0,34.0,-100.00,ESE,115,1.0,3.0,85,-99.99,,,-99.99,,2013-03-19 06:02:00,
2013-03-18 23:12:00,38.0,34.0,-100.00,ESE,115,1.0,3.0,85,-99.99,,,-99.99,,2013-03-19 06:12:00,